FW7740 Weather Reports


time (UTC)temp
C
wind
direction
speed
KPH
gust
KPH
rain 1hr
cm
rain 24hr
cm
rain mn
cm
humidity
%
barometer
mb
20260508082856 6 283 0.0 0.0 0.00 0.00 0.00 95 1014.6
20260508082354 6 283 0.0 0.0 0.00 0.00 0.00 95 1014.2
20260508081852 6 283 0.0 0.0 0.00 0.00 0.00 95 1014.2
20260508081348 6 283 0.0 0.0 0.00 0.00 0.00 95 1014.2
20260508080845 6 283 0.0 0.0 0.00 0.00 0.00 95 1014.2
20260508080343 6 283 0.0 0.0 0.00 0.00 0.00 95 1014.2
20260508075839 6 283 0.0 0.0 0.00 0.00 0.00 95 1014.2
20260508075336 6 283 0.0 0.0 0.00 0.00 0.00 95 1014.6
20260508074834 6 283 0.0 0.0 0.00 0.00 0.00 95 1014.2
20260508074331 6 283 0.0 0.0 0.00 0.00 0.00 94 1014.6
20260508073828 6 283 0.0 0.0 0.00 0.00 0.00 94 1014.2
20260508073326 6 283 0.0 0.0 0.00 0.00 0.00 94 1014.6
20260508072822 6 283 0.0 0.0 0.00 0.00 0.00 94 1014.6
20260508072319 6 283 0.0 0.0 0.00 0.00 0.00 94 1014.6
20260508071816 6 283 0.0 0.0 0.00 0.00 0.00 94 1014.6
20260508071314 6 283 0.0 0.0 0.00 0.00 0.00 94 1014.6
20260508070811 6 283 0.0 0.0 0.00 0.00 0.00 93 1014.6
20260508070310 6 283 0.0 0.0 0.00 0.00 0.00 93 1014.6
20260508065807 7 283 0.0 0.0 0.00 0.00 0.00 93 1014.9
20260508065307 7 283 0.0 0.0 0.00 0.00 0.00 93 1014.9
20260508064803 7 283 0.0 0.0 0.00 0.00 0.00 94 1014.9
20260508064300 7 282 0.0 0.0 0.00 0.00 0.00 94 1014.9
20260508063757 7 283 0.0 0.0 0.00 0.00 0.00 94 1014.9
20260508063256 7 283 0.0 0.0 0.00 0.00 0.00 94 1015.3
20260508062752 7 283 0.0 0.0 0.00 0.00 0.00 93 1015.3
20260508062250 7 283 0.0 0.0 0.00 0.00 0.00 93 1014.9
20260508061746 7 283 0.0 0.0 0.00 0.00 0.00 93 1015.3
20260508061243 7 283 0.0 0.0 0.00 0.00 0.00 93 1015.6
20260508060740 7 283 0.0 0.0 0.00 0.00 0.00 93 1015.3
20260508060238 7 283 0.0 0.0 0.00 0.00 0.00 93 1015.6
20260508055733 7 283 0.0 0.0 0.00 0.00 0.00 93 1015.6
20260508055231 7 283 0.0 0.0 0.00 0.00 0.00 93 1015.3
20260508054727 7 283 0.0 0.0 0.00 0.00 0.00 92 1015.3
20260508054225 7 283 0.0 0.0 0.00 0.00 0.00 93 1015.6
20260508053721 7 283 0.0 0.0 0.00 0.00 0.00 93 1015.6
20260508053219 7 283 0.0 0.0 0.00 0.00 0.00 92 1015.6
20260508052716 7 283 0.0 0.0 0.00 0.00 0.00 92 1015.6
20260508052213 7 283 0.0 0.0 0.00 0.00 0.00 92 1015.3
20260508051709 7 283 0.0 0.0 0.00 0.00 0.00 91 1015.6
20260508051205 7 283 0.0 0.0 0.00 0.00 0.00 91 1015.6
20260508050701 7 283 0.0 0.0 0.00 0.00 0.00 91 1015.6
20260508050159 8 283 0.0 0.0 0.00 0.00 0.00 91 1015.3
20260508045654 8 283 0.0 0.0 0.00 0.00 0.00 91 1015.3
20260508045153 8 283 0.0 0.0 0.00 0.00 0.00 91 1015.6
20260508044650 8 283 0.0 0.0 0.00 0.00 0.00 91 1015.9
20260508044146 8 283 0.0 0.0 0.00 0.00 0.00 91 1015.6
20260508043642 8 283 0.0 0.0 0.00 0.00 0.00 90 1015.6
20260508043140 8 283 0.0 0.0 0.00 0.00 0.00 90 1015.9
20260508042636 8 283 0.0 0.0 0.00 0.00 0.00 90 1015.6
20260508042134 8 282 0.0 0.0 0.00 0.00 0.00 89 1015.9
20260508041630 8 283 0.0 0.0 0.00 0.00 0.00 89 1016.3
20260508041127 8 283 0.0 0.0 0.00 0.00 0.00 89 1016.3
20260508040623 8 282 1.6 1.6 0.00 0.00 0.00 88 1016.3
20260508040121 8 281 1.6 1.6 0.00 0.00 0.00 88 1016.3
20260508035618 8 284 0.0 0.0 0.00 0.00 0.00 88 1015.9
20260508035115 8 291 0.0 0.0 0.00 0.00 0.00 88 1016.3
20260508034612 8 292 1.6 1.6 0.00 0.00 0.00 88 1016.6
20260508034109 8 294 0.0 0.0 0.00 0.00 0.00 88 1016.3
20260508033606 8 294 3.2 1.6 0.00 0.00 0.00 88 1016.3
20260508033105 8 309 0.0 0.0 0.00 0.00 0.00 88 1016.3
20260508032601 8 311 0.0 0.0 0.00 0.00 0.00 88 1016.3
20260508032059 9 311 0.0 0.0 0.00 0.00 0.00 88 1016.3
20260508031555 9 311 0.0 0.0 0.00 0.00 0.00 87 1016.3
20260508031051 10 311 0.0 0.0 0.00 0.00 0.00 86 1016.3
20260508030548 10 311 0.0 0.0 0.00 0.00 0.00 86 1015.9
20260508030046 10 310 0.0 0.0 0.00 0.00 0.00 85 1015.9
20260508025542 10 322 0.0 0.0 0.00 0.00 0.00 84 1015.9
20260508025039 10 322 0.0 0.0 0.00 0.00 0.00 85 1015.9
20260508024535 10 323 0.0 0.0 0.00 0.00 0.00 85 1015.9
20260508024033 10 323 0.0 0.0 0.00 0.00 0.00 85 1016.3
20260508023529 10 323 0.0 0.0 0.00 0.00 0.00 84 1015.6
20260508023026 10 323 0.0 0.0 0.00 0.00 0.00 84 1015.6
20260508022522 10 323 0.0 0.0 0.00 0.00 0.00 83 1015.6
20260508022019 10 323 0.0 0.0 0.00 0.00 0.00 82 1015.3
20260508021515 10 323 0.0 0.0 0.00 0.00 0.00 81 1015.3
20260508021011 11 323 0.0 0.0 0.00 0.00 0.00 80 1015.3
20260508020509 11 323 0.0 0.0 0.00 0.00 0.00 79 1015.3
20260508020006 11 323 0.0 0.0 0.00 0.00 0.00 78 1015.3
20260508015503 11 323 0.0 0.0 0.00 0.00 0.00 77 1015.3
20260508015000 11 323 0.0 0.0 0.00 0.00 0.00 76 1015.3
20260508014456 12 323 0.0 0.0 0.00 0.00 0.00 76 1015.3
20260508013952 12 323 0.0 0.0 0.00 0.00 0.00 73 1015.3
20260508013448 12 323 0.0 0.0 0.00 0.00 0.00 71 1015.3
20260508012946 12 323 0.0 0.0 0.00 0.00 0.00 69 1015.3
20260508012443 13 323 0.0 0.0 0.00 0.00 0.00 69 1015.3
20260508011940 13 323 0.0 0.0 0.00 0.00 0.00 68 1014.9
20260508011438 13 323 0.0 0.0 0.00 0.00 0.00 66 1015.3
20260508010936 14 323 0.0 0.0 0.00 0.00 0.00 63 1014.9
20260508010432 14 323 0.0 0.0 0.00 0.00 0.00 60 1014.9
20260508005930 15 323 0.0 0.0 0.00 0.00 0.00 58 1014.9
20260508005427 15 323 0.0 0.0 0.00 0.00 0.00 57 1014.9
20260508004923 15 323 0.0 0.0 0.00 0.00 0.00 54 1014.9
20260508004419 16 323 0.0 0.0 0.00 0.00 0.00 54 1014.6
20260508003916 16 323 0.0 0.0 0.00 0.00 0.00 52 1014.6
20260508003413 16 323 0.0 0.0 0.00 0.00 0.00 50 1014.6
20260508002910 16 323 0.0 0.0 0.00 0.00 0.00 48 1014.6
20260508002406 16 323 0.0 0.0 0.00 0.00 0.00 48 1014.6
20260508001902 17 323 0.0 0.0 0.00 0.00 0.00 46 1014.2
20260508001358 17 323 0.0 0.0 0.00 0.00 0.00 46 1014.6
20260508000855 17 306 0.0 0.0 0.00 0.00 0.00 46 1014.6
20260508000351 17 294 0.0 0.0 0.00 0.00 0.00 45 1014.6
20260507235848 17 193 3.2 3.2 0.00 0.00 0.00 43 1014.6
20260507235346 17 301 0.0 0.0 0.00 0.00 0.00 46 1014.9
20260507234843 17 291 0.0 0.0 0.00 0.00 0.00 44 1014.6
20260507234339 17 302 0.0 0.0 0.00 0.00 0.00 43 1014.6
20260507233835 18 291 3.2 3.2 0.00 0.00 0.00 42 1014.6
20260507233333 18 309 1.6 1.6 0.00 0.00 0.00 43 1014.6
20260507232831 18 339 1.6 1.6 0.00 0.00 0.00 41 1014.9
20260507232327 18 342 0.0 0.0 0.00 0.00 0.00 44 1014.9
20260507231825 18 278 1.6 3.2 0.00 0.00 0.00 43 1014.9
20260507231321 18 296 1.6 1.6 0.00 0.00 0.00 43 1014.9
20260507230818 18 297 0.0 0.0 0.00 0.00 0.00 42 1014.9
20260507230316 18 308 1.6 1.6 0.00 0.00 0.00 40 1014.9
20260507225815 18 303 0.0 0.0 0.00 0.00 0.00 40 1014.9
20260507225311 18 234 6.4 8.0 0.00 0.00 0.00 39 1015.3
20260507224807 18 288 1.6 1.6 0.00 0.00 0.00 39 1015.3
20260507224304 19 282 1.6 3.2 0.00 0.00 0.00 38 1015.3
20260507223800 18 287 3.2 3.2 0.00 0.00 0.00 39 1015.3
20260507223257 19 334 0.0 0.0 0.00 0.00 0.00 40 1015.3
20260507222754 19 289 1.6 3.2 0.00 0.00 0.00 38 1015.3
20260507222250 19 343 3.2 4.8 0.00 0.00 0.00 38 1015.3
20260507221748 19 313 0.0 1.6 0.00 0.00 0.00 39 1015.3
20260507221244 19 162 6.4 8.0 0.00 0.00 0.00 37 1015.6
20260507220740 19 189 4.8 4.8 0.00 0.00 0.00 36 1015.6
20260507220238 20 282 1.6 1.6 0.00 0.00 0.00 36 1015.3
20260507215734 20 19 3.2 4.8 0.00 0.00 0.00 36 1015.6
20260507215232 20 27 1.6 1.6 0.00 0.00 0.00 36 1015.6
20260507214729 20 236 3.2 4.8 0.00 0.00 0.00 34 1015.6
20260507214226 20 238 3.2 3.2 0.00 0.00 0.00 37 1015.6
20260507213721 20 111 1.6 4.8 0.00 0.00 0.00 34 1015.6
20260507213219 20 173 4.8 3.2 0.00 0.00 0.00 35 1015.3
20260507212714 20 62 6.4 9.7 0.00 0.00 0.00 34 1015.6
20260507212211 20 180 6.4 8.0 0.00 0.00 0.00 34 1015.6
20260507211708 20 25 1.6 1.6 0.00 0.00 0.00 34 1015.6
20260507211204 20 239 1.6 1.6 0.00 0.00 0.00 35 1015.9
20260507210701 20 286 6.4 11.3 0.00 0.00 0.00 33 1015.9
20260507210158 20 284 0.0 0.0 0.00 0.00 0.00 36 1015.6
20260507205654 20 331 1.6 1.6 0.00 0.00 0.00 34 1015.9
20260507205151 20 133 6.4 4.8 0.00 0.00 0.00 33 1016.3
20260507204647 20 72 4.8 4.8 0.00 0.00 0.00 33 1015.9
20260507204145 20 251 1.6 3.2 0.00 0.00 0.00 33 1016.3
20260507203643 20 142 3.2 3.2 0.00 0.00 0.00 33 1016.3
20260507203140 20 29 3.2 3.2 0.00 0.00 0.00 33 1016.3
20260507202636 21 170 8.0 8.0 0.00 0.00 0.00 31 1016.3
20260507202132 20 163 4.8 4.8 0.00 0.00 0.00 32 1016.3
20260507201627 20 162 4.8 4.8 0.00 0.00 0.00 34 1016.6
20260507201125 20 6 0.0 0.0 0.00 0.00 0.00 31 1016.6
20260507200620 20 276 1.6 1.6 0.00 0.00 0.00 33 1016.6
20260507200116 20 206 4.8 9.7 0.00 0.00 0.00 32 1017.0
20260507195614 20 38 8.0 9.7 0.00 0.00 0.00 30 1017.0
20260507195111 20 161 3.2 3.2 0.00 0.00 0.00 32 1017.0
20260507194607 20 175 4.8 4.8 0.00 0.00 0.00 31 1017.0
20260507194103 20 169 6.4 8.0 0.00 0.00 0.00 31 1017.0
20260507193600 20 174 4.8 8.0 0.00 0.00 0.00 31 1016.6
20260507193057 19 242 6.4 8.0 0.00 0.00 0.00 32 1017.0
20260507192553 19 344 4.8 4.8 0.00 0.00 0.00 32 1017.3
20260507192050 20 22 4.8 4.8 0.00 0.00 0.00 29 1017.3
20260507191546 20 268 1.6 3.2 0.00 0.00 0.00 31 1017.6
20260507191043 20 140 12.9 14.5 0.00 0.00 0.00 29 1017.3
20260507190540 20 158 8.0 9.7 0.00 0.00 0.00 31 1017.3
20260507190039 20 191 3.2 3.2 0.00 0.00 0.00 29 1017.3
20260507185537 20 293 8.0 12.9 0.00 0.00 0.00 31 1017.3
20260507185033 19 109 4.8 3.2 0.00 0.00 0.00 30 1017.3
20260507184532 19 55 1.6 1.6 0.00 0.00 0.00 29 1017.3
20260507184029 19 152 0.0 1.6 0.00 0.00 0.00 29 1017.3
20260507183525 19 264 1.6 1.6 0.00 0.00 0.00 29 1017.3
20260507183022 19 56 0.0 0.0 0.00 0.00 0.00 30 1017.6
20260507182518 18 89 4.8 8.0 0.00 0.00 0.00 30 1017.6
20260507182014 19 44 6.4 8.0 0.00 0.00 0.00 29 1017.6
20260507181511 20 319 0.0 0.0 0.00 0.00 0.00 33 1017.6
20260507181008 19 178 1.6 3.2 0.00 0.00 0.00 30 1018.1
20260507180504 19 322 3.2 4.8 0.00 0.00 0.00 30 1018.1
20260507180000 19 333 0.0 0.0 0.00 0.00 0.00 30 1018.1
20260507175457 19 2 4.8 8.0 0.00 0.00 0.00 29 1018.8
20260507174955 18 38 4.8 8.0 0.00 0.00 0.00 28 1018.4
20260507174452 18 80 9.7 12.9 0.00 0.00 0.00 27 1018.1
20260507173949 18 116 4.8 4.8 0.00 0.00 0.00 29 1018.4
20260507173446 18 151 1.6 1.6 0.00 0.00 0.00 29 1018.4
20260507172943 18 131 4.8 8.0 0.00 0.00 0.00 30 1018.8
20260507172439 18 183 4.8 4.8 0.00 0.00 0.00 29 1018.8
20260507171936 18 160 4.8 8.0 0.00 0.00 0.00 29 1019.1
20260507171432 18 203 8.0 9.7 0.00 0.00 0.00 29 1018.8
20260507170929 18 135 4.8 4.8 0.00 0.00 0.00 30 1018.8
20260507170426 18 131 4.8 4.8 0.00 0.00 0.00 31 1019.1
20260507165922 18 59 3.2 3.2 0.00 0.00 0.00 30 1019.1
20260507165418 18 168 4.8 8.0 0.00 0.00 0.00 30 1019.1
20260507164914 18 220 3.2 3.2 0.00 0.00 0.00 31 1019.1
20260507164411 17 346 3.2 3.2 0.00 0.00 0.00 30 1019.1
20260507163908 17 120 3.2 3.2 0.00 0.00 0.00 32 1019.1
20260507163406 18 179 8.0 9.7 0.00 0.00 0.00 31 1019.4
20260507162902 18 170 4.8 8.0 0.00 0.00 0.00 32 1019.4
20260507162357 18 112 1.6 1.6 0.00 0.00 0.00 31 1019.4
20260507161855 17 31 3.2 4.8 0.00 0.00 0.00 31 1019.4
20260507161351 16 152 3.2 3.2 0.00 0.00 0.00 32 1019.4
20260507160848 17 164 11.3 12.9 0.00 0.00 0.00 33 1019.1
20260507160343 17 57 3.2 4.8 0.00 0.00 0.00 33 1019.4
20260507155840 17 166 0.0 0.0 0.00 0.00 0.00 34 1019.1
20260507155336 16 224 8.0 9.7 0.00 0.00 0.00 37 1019.4
20260507154833 17 1 6.4 9.7 0.00 0.00 0.00 34 1019.4
20260507154330 17 296 1.6 1.6 0.00 0.00 0.00 36 1019.8
20260507153827 17 324 1.6 1.6 0.00 0.00 0.00 36 1019.4
20260507153323 17 202 4.8 4.8 0.00 0.00 0.00 35 1019.8
20260507152820 17 218 4.8 4.8 0.00 0.00 0.00 37 1019.4
20260507152316 17 243 1.6 1.6 0.00 0.00 0.00 37 1019.8
20260507151812 16 129 3.2 3.2 0.00 0.00 0.00 37 1019.4
20260507151309 17 161 6.4 9.7 0.00 0.00 0.00 36 1019.8
20260507150806 16 346 1.6 1.6 0.00 0.00 0.00 36 1019.8
20260507150302 16 182 1.6 1.6 0.00 0.00 0.00 39 1019.8
20260507145759 16 234 4.8 4.8 0.00 0.00 0.00 41 1019.8
20260507145255 15 214 4.8 4.8 0.00 0.00 0.00 41 1019.8
20260507144752 15 158 8.0 9.7 0.00 0.00 0.00 41 1019.8
20260507144250 16 159 4.8 4.8 0.00 0.00 0.00 41 1019.8
20260507143746 16 49 0.0 1.6 0.00 0.00 0.00 41 1020.1
20260507143244 15 183 0.0 0.0 0.00 0.00 0.00 46 1019.8
20260507142739 15 168 3.2 3.2 0.00 0.00 0.00 47 1019.8
20260507142236 14 171 4.8 4.8 0.00 0.00 0.00 50 1020.1
20260507141732 14 194 3.2 3.2 0.00 0.00 0.00 51 1020.1
20260507141230 13 143 4.8 8.0 0.00 0.00 0.00 53 1020.1
20260507140725 13 181 4.8 4.8 0.00 0.00 0.00 59 1019.8
20260507140224 13 55 1.6 1.6 0.00 0.00 0.00 61 1020.4
20260507135720 13 53 0.0 0.0 0.00 0.00 0.00 63 1020.1
20260507135218 12 53 0.0 0.0 0.00 0.00 0.00 65 1020.1
20260507134714 12 53 0.0 0.0 0.00 0.00 0.00 65 1020.1
20260507134210 12 53 0.0 0.0 0.00 0.00 0.00 67 1020.1
20260507133706 11 53 0.0 0.0 0.00 0.00 0.00 70 1020.1
20260507133203 10 53 0.0 0.0 0.00 0.00 0.00 74 1020.1
20260507132700 10 54 1.6 1.6 0.00 0.00 0.00 77 1020.4
20260507132157 10 151 1.6 1.6 0.00 0.00 0.00 76 1020.4
20260507131654 9 233 0.0 0.0 0.00 0.00 0.00 77 1020.1
20260507131151 8 239 0.0 0.0 0.00 0.00 0.00 78 1020.4
20260507130647 8 239 0.0 0.0 0.00 0.00 0.00 79 1020.4
20260507130145 7 240 0.0 1.6 0.00 0.00 0.00 80 1020.4
20260507125644 7 240 1.6 1.6 0.00 0.00 0.00 81 1020.1
20260507125142 7 242 0.0 0.0 0.00 0.00 0.00 82 1020.4
20260507124637 6 243 0.0 0.0 0.00 0.00 0.00 87 1020.4
20260507124135 6 245 3.2 3.2 0.00 0.00 0.00 88 1020.4
20260507123633 5 253 1.6 1.6 0.00 0.00 0.00 89 1020.4
20260507123130 5 260 3.2 3.2 0.00 0.00 0.00 90 1020.1
20260507122625 5 261 1.6 1.6 0.00 0.00 0.00 90 1020.4
20260507122116 5 288 0.0 0.0 0.00 0.00 0.00 91 1020.4
20260507121612 4 288 0.0 0.0 0.00 0.00 0.00 91 1020.1
20260507121108 4 288 0.0 0.0 0.00 0.00 0.00 92 1020.1
20260507120604 3 288 0.0 0.0 0.00 0.00 0.00 93 1019.8
20260507115557 3 288 0.0 0.0 0.00 0.00 0.00 94 1020.1
20260507115053 3 286 0.0 0.0 0.00 0.00 0.00 94 1019.8
20260507114549 3 292 0.0 0.0 0.00 0.00 0.00 94 1019.8
20260507114047 3 300 0.0 0.0 0.00 0.00 0.00 95 1019.8
20260507113544 3 300 0.0 0.0 0.00 0.00 0.00 95 1019.8
20260507113041 3 300 0.0 0.0 0.00 0.00 0.00 94 1019.8
20260507112539 3 300 0.0 0.0 0.00 0.00 0.00 94 1019.8
20260507112035 3 300 0.0 0.0 0.00 0.00 0.00 94 1019.8
20260507111532 3 300 0.0 0.0 0.00 0.00 0.00 94 1019.8
20260507111029 3 300 0.0 0.0 0.00 0.00 0.00 94 1019.8
20260507110525 3 300 0.0 0.0 0.00 0.00 0.00 93 1019.4
20260507110022 3 300 0.0 0.0 0.00 0.00 0.00 93 1019.8
20260507105519 3 300 0.0 0.0 0.00 0.00 0.00 93 1019.8
20260507105015 3 300 0.0 0.0 0.00 0.00 0.00 93 1019.8
20260507104513 3 300 0.0 0.0 0.00 0.00 0.00 94 1019.8
20260507104008 3 300 0.0 0.0 0.00 0.00 0.00 94 1019.8
20260507103500 3 300 0.0 0.0 0.00 0.00 0.00 93 1019.4
20260507102955 3 300 0.0 0.0 0.00 0.00 0.00 93 1019.8
20260507102453 3 300 0.0 0.0 0.00 0.00 0.00 93 1019.8
20260507101949 3 300 0.0 0.0 0.00 0.00 0.00 93 1019.8
20260507101444 3 300 0.0 0.0 0.00 0.00 0.00 93 1019.8
20260507100940 3 300 0.0 0.0 0.00 0.00 0.00 93 1019.4
20260507100438 3 300 0.0 0.0 0.00 0.00 0.00 93 1019.8
20260507095936 3 300 0.0 0.0 0.00 0.00 0.00 93 1019.8
20260507095433 3 300 0.0 0.0 0.00 0.00 0.00 94 1019.8
20260507094924 2 300 0.0 0.0 0.00 0.00 0.00 94 1019.8
20260507094420 2 301 0.0 0.0 0.00 0.00 0.00 94 1019.8
20260507093917 2 301 0.0 0.0 0.00 0.00 0.00 94 1019.8
20260507093415 2 301 0.0 0.0 0.00 0.00 0.00 94 1019.4
20260507092914 2 300 0.0 0.0 0.00 0.00 0.00 95 1019.4
20260507092409 2 301 0.0 0.0 0.00 0.00 0.00 95 1019.4
20260507091906 2 301 0.0 0.0 0.00 0.00 0.00 95 1019.4
20260507091403 2 301 0.0 0.0 0.00 0.00 0.00 95 1019.8
20260507090858 2 301 0.0 0.0 0.00 0.00 0.00 95 1019.4
20260507090355 2 301 0.0 0.0 0.00 0.00 0.00 95 1019.4
20260507085852 2 301 0.0 0.0 0.00 0.00 0.00 95 1019.1
20260507085348 2 301 0.0 0.0 0.00 0.00 0.00 95 1019.4
20260507084846 2 301 0.0 0.0 0.00 0.00 0.00 94 1019.4
20260507084342 2 301 0.0 0.0 0.00 0.00 0.00 95 1019.1
20260507083840 2 301 0.0 0.0 0.00 0.00 0.00 94 1019.4
20260507083336 2 301 0.0 0.0 0.00 0.00 0.00 94 1019.4